Flag for Sao Tome and Principe Weather past 2 weeks in São Tomé, Sao Tome and Principe

Now
75 °F

Passing clouds.


Feels Like: 75 °F
Forecast: N/A
Wind: 5 mph from Northeast

Location: S. Tome

Current Time: Aug 30, 2014 at 9:25:23 PM

Latest Report: Aug 30, 2014 at 8:00 PM


Visibility: N/A

Pressure: 29.95 "Hg

Humidity: 83%

Dew point: 70 °F

Location of São ToméLocation

Historic Weather in São Tomé — Graph

°F

São Tomé temperature yesterday

Maximum temperature yesterday: 82 °F (at 10:00 AM)
Minimum temperature yesterday: 75 °F (at 1:00 AM)
Average temperature yesterday: 78 °F

Past Weeks' High & Low Weather Summary

 TemperatureHumidityPressure
High82 °F (Aug 16, 1:00 PM)100% (Aug 19, 6:00 PM)30.04 "Hg (Aug 19, 6:00 PM)
Low72 °F (Aug 18, 4:00 AM)41% (Aug 27, 4:00 AM)29.86 "Hg (Aug 27, 4:00 PM)
Average77 °F86%29.95 "Hg
* Reported Aug 15 10:00 PM — Aug 30 8:00 PM, São Tomé, Weather by CustomWeather, © 2014

Note: Actual official high and low records may vary slightly from our data, if they occured in-between our weather recording intervals... More about our weather records

Advertising

São Tomé weather history for previous 24 hours

 ConditionsComfort  
Time TempWeatherWind HumidityBarometerVisibility
8:00 PM
Aug 30
75 °FPassing clouds.5 mph83%29.95 "HgN/A
7:00 PM75 °FPassing clouds.No wind83%29.92 "HgN/A
6:00 PM77 °FPassing clouds.7 mph83%29.89 "HgN/A
5:00 PM79 °FPartly sunny.9 mph79%29.89 "HgN/A
3:00 PM79 °FPartly sunny.9 mph79%29.89 "HgN/A
1:00 PM77 °FPartly sunny.12 mph83%29.95 "HgN/A
12:00 PM79 °FPartly sunny.12 mph79%29.95 "Hg5 mi
11:00 AM81 °FPartly sunny.18 mph74%29.98 "HgN/A
10:00 AM81 °FPartly sunny.16 mph70%29.98 "HgN/A
9:00 AM79 °FPartly sunny.12 mph79%29.98 "HgN/A
8:00 AM77 °FPartly sunny.5 mph83%29.95 "HgN/A
6:00 AM73 °FPartly sunny.5 mph83%29.95 "HgN/A
4:00 AM75 °FPassing clouds.12 mph83%29.89 "HgN/A
3:00 AM75 °FPartly cloudy.14 mph83%29.92 "HgN/A
1:00 AM75 °FPassing clouds.12 mph89%29.92 "HgN/A
12:00 AM77 °FPassing clouds.12 mph79%29.95 "HgN/A
11:00 PM
Aug 29
77 °FPassing clouds.7 mph83%29.95 "HgN/A
9:00 PM75 °FPassing clouds.14 mph83%29.92 "HgN/A
Weather by CustomWeather, © 2014

See weather overviewHow to use our weather pages